Weather in Nowa Deba

Poland     50°25′31″N   21°44′54″E
temp.,
°C
wind,
m/s
gust,
m/s
humid.,
%
clouds,
%
prec.,
mm/h
press.,
hPa
HPBL,
m
17 may, mon
mon1723:00+10ssw249658 0.0 100787
02:00+8sw22932 0.0 100728
05:00+8sse22940 0.0 100612
08:00+13s23790 0.0 1006340
11:00+18ssw34550 0.0 10051466
14:00+20sse334719 0.0 10041951
17:00+20se33495 0.0 10021662
20:00+15sse337247 0.1 100233
18 may, tue
tue1823:00+11w4895100 0.7 1003225
02:00+11wnw4794100 0.8 1004405
05:00+11wnw4993100 0.2 1004583
08:00+12nw5985100 0.3 1005691
11:00+12wnw5887100 0.4 1007695
14:00+11w61293100 1.6 1008779
17:00+12wnw41089100 1.4 1008722
20:00+12wnw4989100 1.9 1009349
19 may, wed
wed1923:00+10w41094100 0.1 1010282
02:00+9wsw51195100 0.1 1010269
05:00+8wnw413935 0.0 1011406
08:00+12w688159 0.0 1012765
11:00+16wnw5760100 0.1 10121605
14:00+15wnw576855 0.3 10121092
17:00+15n467131 0.9 10121037
20:00+11nw358541 1.4 101280
20 may, thu
thu2023:00+9nnw3791100 0.0 1012147
02:00+8nw399677 0.0 1012207
05:00+7nnw31097100 0.1 1012298
08:00+10nnw61085100 0.2 1013629
11:00+14nnw7964100 0.0 10131406
14:00+15nnw6854100 0.1 10131906
17:00+14nnw71062100 0.1 1013995
20:00+11nw4974100 0.1 1014244
21 may, fri
fri2123:00+9wnw41179100 0.0 1016363
02:00+8wnw41091100 0.0 1018306
05:00+6wnw4118230 0.0 1019415
08:00+10wnw58715 0.0 1020920
11:00+13wnw675177 0.2 10192023
14:00+14wsw785082 0.2 10181843
17:00+15w675132 0.0 10171821
20:00+10wsw36785 0.0 1018115